JO-97
1 43803U 18099AX  24340.11277289  .00021440  00000-0  11836-2 0  9997
2 43803  97.4963  35.4594 0009693  76.8646 283.3667 15.13914795328498
Suomi 100
1 43804U 18099AY  24340.41600363  .00018040  00000-0  10365-2 0  9992
2 43804  97.5035  35.4417 0015344  75.6548 284.6385 15.12458045328505
ISAT
1 43879U 18111D   24340.69842051  .00026750  00000-0  12674-2 0  9993
2 43879  97.6058 246.3582 0013022 118.5891 241.6655 15.19215344323359
UWE-4
1 43880U 18111E   24340.70993523  .00022444  00000-0  11274-2 0  9999
2 43880  97.5988 245.8566 0015854 130.4681 229.7937 15.17179080323368
Sparrow
1 43881U 18111F   24340.73326214  .00026916  00000-0  12488-2 0  9996
2 43881  97.6173 248.6751 0009111 149.7645 210.4117 15.19979378323452
Prox-1
1 44339U 19036A   24340.27401382  .00020811  00000-0  30995-2 0  9992
2 44339  23.9961 199.6971 0007526 112.2017 247.9278 14.73379198290441
SONATE
1 44400U 19038Q   24340.56031094  .00056392  00000-0  10185-2 0  9996
2 44400  97.7128 344.0370 0010396 199.0663 161.0199 15.49484716300461
Taurus 1
1 44530U 19059C   24340.83944102  .00015275  00000-0  31263-2 0  9991
2 44530  98.5896 106.3452 0010658 246.0071 114.0013 14.60847195276778
Duchifat 3
1 44854U 19089C   24340.62994282  .00041612  00000-0  14812-2 0  9999
2 44854  36.9513  80.3129 0010523  95.8549 264.3401 15.27982897274324
TO-108
1 44881U 19093C   24340.81942511  .00002906  00000-0  34798-3 0  9992
2 44881  97.8137  54.2623 0015263 118.5176 241.7577 14.84789616268508
FloripaSat 1
1 44885U 19093G   24340.75547390  .00011561  00000-0  10719-2 0  9998
2 44885  97.8300  62.3983 0012093 106.1230 254.1322 14.94559226268953
RS-44
1 44909U 19096E   24340.56272653  .00000019  00000-0  30753-4 0  9992
2 44909  82.5216 350.8968 0217679  10.8400 349.7282 12.79736621230897
UPMSat 2
1 46276U 20061E   24340.22759672  .00047288  00000-0  96249-3 0  9999
2 46276  97.2735  45.5196 0000696 166.6808 193.4460 15.46128653236487
AmicalSat
1 46287U 20061R   24340.16462300  .00276493  00000-0  19010-2 0  9995
2 46287  97.3174  50.3934 0002522 285.0021  75.0965 15.73854100236044
SALSAT
1 46495U 20068K   24340.83822167  .00013434  00000-0  66242-3 0  9992
2 46495  97.8404 305.2138 0015077  84.5426 275.7526 15.17960727230300
IDEASSat
1 47458U 21006AX  24340.69767870  .01541961  16954-2  17524-2 0  9995
2 47458  97.2838  45.0334 0005333 297.3080  62.7661 16.09596299215315
CubeSX-Sirius-HSE
1 47951U 21022V   24340.80640511  .00060804  00000-0  14212-2 0  9991
2 47951  97.4397 240.1748 0006506 241.2425 118.8169 15.41938326204855
CubeSX-HSE
1 47952U 21022W   24340.80257418  .00059217  00000-0  13673-2 0  9998
2 47952  97.4394 240.3149 0006575 238.3304 121.7302 15.42312873204866
KSU-Cubesat
1 47954U 21022Y   24340.69873596  .00097643  00000-0  16523-2 0  9990
2 47954  97.4401 242.8360 0004562 211.4391 148.6589 15.51213499204736
GRBAlpha
1 47959U 21022AD  24340.82560265  .00061456  00000-0  14194-2 0  9991
2 47959  97.4395 240.5064 0006526 238.6148 121.4461 15.42294033203697
Orbicraft-Zorkiy
1 47960U 21022AE  24340.78899443  .00074173  00000-0  14182-2 0  9998
2 47960  97.4433 242.6855 0004743 227.7800 132.3048 15.47817789204491
TUBIN
1 48900U 21059X   24340.75682526  .00038945  00000-0  91671-3 0  9998
2 48900  97.6623 131.9275 0005224 196.8363 163.2710 15.41843997191241
LEDSAT
1 49069U 21073D   24340.72773084  .00041517  00000-0  11200-2 0  9996
2 49069  97.4166  51.8434 0015106  36.2777 323.9489 15.37558707182684
CUTE
1 49263U 21088D   24340.73158389  .00048486  00000-0  14754-2 0  9993
2 49263  97.4755  46.8451 0010785 192.3458 167.7521 15.33801999175790
TeikyoSat 4
1 49396U 21102B   24340.69600981  .00004028  00000-0  27876-3 0  9996
2 49396  97.4372  19.7213 0014397  55.3871 304.8712 15.06148323168554
Z-Sat
1 49399U 21102E   24340.79039894  .00008626  00000-0  50930-3 0  9994
2 49399  97.4085  21.9197 0019986  31.5717 328.6708 15.11584346168888
KOSEN 1
1 49402U 21102H   24340.68409055  .00013025  00000-0  67867-3 0  9993
2 49402  97.3997  24.0123 0017554  12.6640 347.5031 15.15981348169080
HO-113
1 50466U 21131B   24340.82779511  .00001599  00000-0  51836-3 0  9992
2 50466  98.5214  65.1007 0003691 347.4988  12.6108 14.40321087154708
IRIS-A
1 51044U 22002BN  24340.56176407  .00062121  00000-0  12064-2 0  9996
2 51044  97.3605  47.8637 0004829 135.0778 225.0864 15.47417603160760
Foresail-1
1 52766U 22057AL  24340.84836680  .00058786  00000-0  11313-2 0  9993
2 52766  97.5979 112.2790 0007435 241.0213 119.0292 15.47678889140842
SNUGLITE 2
1 52899U 22065F   24340.83903668  .00003352  00000-0  67501-3 0  9999
2 52899  98.1424 119.0681 0007173 343.6323  16.4645 14.62175412129338
IO-117
1 53106U 22080B   24340.33076919 -.00000003  00000-0  00000-0 0  9992
2 53106  70.1317 133.0636 0008362  68.7653 291.3899  6.42557789 56265
FO-118
1 54684U 22167C   24340.83737476  .00121739  00000-0  17641-2 0  9997
2 54684  97.6150 132.4642 0008250 260.6234  99.4087 15.55405065110710
SSS-2B
1 56184U 23054G   24340.79526797  .00469275  83564-4  17044-2 0  9994
2 56184  97.3367 243.6966 0005231 110.2032 249.9803 15.88481409 92810
SO-120
1 56992U 23084BU  24340.15298950  .00171047  00000-0  22996-2 0  9990
2 56992  97.5376 104.2551 0004203 151.8586 208.2896 15.57294023 82475
MRC-100
1 56993U 23084BV  24340.58403814  .00339601  00000-0  24696-2 0  9996
2 56993  97.5326 106.4745 0001613 245.4798 114.6297 15.72347515 82665
UmKA 1 (RS40S)
1 57172U 23091G   24340.84014976  .00011593  00000-0  68482-3 0  9999
2 57172  97.5876  31.3635 0014359 253.3866 106.5788 15.11575910 79389
CubeBel-2 (EU11S)
1 57175U 23091K   24340.84362268  .00015854  00000-0  88196-3 0  9990
2 57175  97.5877  31.6541 0012493 265.0917  94.8888 15.13683247 79404
VERONIKA
1 58261U 23174F   24340.80392872  .00050275  00000-0  14317-2 0  9998
2 58261  97.4410  55.3443 0008906 357.4138   2.7058 15.35901952 59902
KAFASAT
1 58317U 23174BP  24340.47304099  .00097702  00000-0  20078-2 0  9994
2 58317  97.4337  56.8666 0007501 324.7020  35.3732 15.45603007 59993
ENSO
1 58470U 23185J   24340.81135714  .00041083  00000-0  11903-2 0  9998
2 58470  97.4032  46.7772 0010288  34.6934 325.4979 15.35396021 56355
EIRSAT-1
1 58472U 23185L   24340.84264692  .00044397  00000-0  11931-2 0  9993
2 58472  97.4023  47.1567 0009467  33.6275 326.5569 15.37732755 56388
SONATE-2
1 59112U 24043Q   24340.31157138  .00025400  00000-0  97349-3 0  9999
2 59112  97.4955 103.3455 0013516  56.5755 303.6774 15.26418340 41839
MO-122
1 60209U 24125G   24340.55254126  .00024525  00000-0  93277-3 0  9993
2 60209  97.2981 189.2358 0024781  80.6367 279.7673 15.26470981 23484
GRBBeta
1 60237U 24128C   24340.43929120  .00008467  00000-0  69260-3 0  9999
2 60237  61.9943   7.1668 0029987  10.5208 349.6502 14.99654657 22257
Curium One
1 60242U 24128H   24340.40338073  .00013666  00000-0  10908-2 0  9994
2 60242  61.9847   7.3725 0030293   2.1362 357.9851 15.00208726 22256
ROBUSTA-3A
1 60243U 24128J   24340.49331616  .00014433  00000-0  11607-2 0  9990
2 60243  61.9914   7.3669 0028353 359.7158   0.3911 14.99930607 22261
CatSat
1 60246U 24125J   24340.14155814  .00021406  00000-0  84594-3 0  9990
2 60246  97.2786 189.6273 0049456  37.4482 323.0184 15.24356723 21520
CosmoGirlSat
1 60953U 98067WT  24340.77831721  .02085165  43552-2  18439-2 0  9997
2 60953  51.6096 171.6830 0010824 263.5710  96.4073 16.13206240 15445
CySat-1
1 61501U 98067WZ  24340.78839029  .00275216  00000-0  19163-2 0  9997
2 61501  51.6293 180.8855 0013003 243.6881 116.2782 15.72885694  9152
AO-123
1 99130U 20499A   24340.52702546 -.00177143  00000-0 -73756-2 0 00008
2 99130 097.3779 204.8410 0018571 130.8028 286.0454 15.23674837000015
